Regional Weather Roundup
Issued by NWS

Home | Current Version | Previous Version | Text Only | Print | Product List | Glossary Off
Versions: 1 2 3 4 5 6 7 8 9 10 11 12 13 14 15 16 17 18 19 20 21 22 23 24 25 26 27

000
ASUS45 KBOI 241410
RWRID

IDAHO REGIONAL WEATHER ROUNDUP
NATIONAL WEATHER SERVICE BOISE ID
800 AM MDT MON JUL 24 2017

NOTE: "FAIR" INDICATES FEW OR NO CLOUDS BELOW 12000 FEET
WITH NO SIGNIFICANT WEATHER AND/OR OBSTRUCTIONS TO VISIBILITY

IDZ012-014-241500-
SOUTHWEST IDAHO


CITY           SKY/WX    TMP DP  RH WIND       PRES   REMARKS
BOISE          PTSUNNY   74  42  31 CALM      29.90R
CALDWELL       PTSUNNY   69  59  70 E5        29.88R
MOUNTAIN HOME  PTSUNNY   71  46  41 SE5       29.91R
$$

IDZ016-017-241500-
SOUTHCENTRAL IDAHO


CITY           SKY/WX    TMP DP  RH WIND       PRES   REMARKS
BURLEY         PTSUNNY   63  53  70 CALM      29.98R
JEROME         MOSUNNY   73  46  38 E5        29.99R
TWIN FALLS     MOSUNNY   70  46  42 S14       29.98R
$$

IDZ019>023-241500-
SOUTHEAST IDAHO


CITY           SKY/WX    TMP DP  RH WIND       PRES   REMARKS
IDAHO FALLS    CLOUDY    64  49  57 E3        30.05R
POCATELLO      MOSUNNY   64  47  53 N3        30.03R
REXBURG        MOSUNNY   57  47  69 E6        30.05S
$$

IDZ006-010-011-018-031-032-241500-
CENTRAL IDAHO MOUNTAINS


CITY           SKY/WX    TMP DP  RH WIND       PRES   REMARKS
MCCALL         MOSUNNY   60  46  59 CALM      30.06R
HAILEY         MOSUNNY   63  34  34 NW12      30.10S
STANLEY          N/A     49  36  61 CALM      30.21S
SALMON         NOT AVBL
CHALLIS        PTSUNNY   63  37  38 CALM      30.09R
$$

IDZ002-004-006-007-026-241500-
NORTHERN IDAHO


CITY           SKY/WX    TMP DP  RH WIND       PRES   REMARKS
LEWISTON       MOSUNNY   71  47  42 S6        29.91R
LOWELL           N/A     61  54  77 CALM      29.95S
COEUR D`ALENE  SUNNY     63  44  50 CALM      29.95R
MULLAN PASS    SUNNY     59  40  49 VRB3      30.08S
$$




USA.gov is the U.S. government's official web portal to all federal, state and local government web resources and services.